Location: Haliburton Scout Reserve
(45.0900°N, 78.3200°W)
Time: 19:07:37
(UTC-05:00)

Courier 1B - Pass Details

Date: 03 December 2023
Orbit: 962 x 1209 km, 28.3° (Epoch: 23 February)

Event Time Altitude Azimuth Distance (km) Brightness Sun altitude
Rises 11:15:15 0° 231° (SW) 3,687 10.9 21.9°
Reaches altitude 10° 11:18:56 10° 212° (SSW) 2,710 10.7 22.0°
Maximum altitude 11:22:52 17° 175° (S) 2,237 12.2 22.2°
Drops below altitude 10° 11:26:46 10° 137° (SE) 2,684 10.9 22.3°
Sets 11:30:24 0° 118° (ESE) 3,636 11.0 22.4°
